Location: Unspecified
(0.0000°N, 0.0000°E)
Time: 11:30:47
(UTC+02:00)

SJ-6B - Visible Passes

Search period start: 18 June 2018 00:00
Search period end: 28 June 2018 00:00
Orbit: 511 x 582 km, 97.7° (Epoch: 17 June)

Date Brightness Start Highest point End Pass type
(mag) Time Alt. Az. Time Alt. Az. Time Alt. Az.
18 Jun 3.8 21:54:11 40° NNW 21:54:11 40° NNW 21:56:41 10° NNW visible
19 Jun 3.6 21:48:49 41° N 21:48:49 41° N 21:51:25 10° N visible
20 Jun 3.5 21:43:28 40° NNE 21:43:28 40° NNE 21:46:08 10° N visible
21 Jun 3.6 21:38:07 37° NNE 21:38:07 37° NNE 21:40:49 10° N visible
22 Jun 3.7 21:32:46 33° NE 21:32:46 33° NE 21:35:28 10° N visible
23 Jun 3.8 21:27:24 29° NE 21:27:24 29° NE 21:30:04 10° NNE visible
24 Jun 4.0 21:22:02 25° ENE 21:22:02 25° ENE 21:24:38 10° NNE visible
25 Jun 4.2 21:16:41 22° ENE 21:16:41 22° ENE 21:19:10 10° NNE visible
26 Jun 4.4 21:11:20 18° ENE 21:11:20 18° ENE 21:13:37 10° NNE visible
26 Jun 6.1 22:46:59 10° WNW 22:46:59 10° WNW 22:47:04 10° WNW visible
27 Jun 4.6 21:05:58 16° ENE 21:05:58 16° ENE 21:07:59 10° NE visible
27 Jun 5.9 22:41:37 13° WNW 22:41:37 13° WNW 22:42:22 10° WNW visible
